This is the latest recevied weather packets stored in our database for station/object PE1BMM-13. If no packets are shown the sender has not sent any weather packets the latest 10 day(s).
| Time | Temp. | Humidity | Pressure | Rain* | Wind** | Luminosity | Snow |
|---|---|---|---|---|---|---|---|
| 1777646518 | 23.89° C | 31% | 1022.3 hPa | 0 mm | - | - | - |
| 1777646218 | 23.33° C | 34% | 1022.3 hPa | 0 mm | - | - | - |
| 1777645916 | 23.33° C | 34% | 1022.3 hPa | 0 mm | - | - | - |
| 1777645618 | 23.33° C | 33% | 1022.3 hPa | 0 mm | - | - | - |
| 1777645316 | 23.33° C | 33% | 1022.5 hPa | 0 mm | - | - | - |
| 1777645017 | 23.33° C | 33% | 1022.4 hPa | 0 mm | - | - | - |
| 1777644711 | 23.33° C | 34% | 1022.5 hPa | 0 mm | - | - | - |
| 1777644410 | 23.33° C | 33% | 1022.6 hPa | 0 mm | - | - | - |
| 1777644110 | 23.33° C | 35% | 1022.5 hPa | 0 mm | - | - | - |
| 1777643810 | 23.33° C | 34% | 1022.7 hPa | 0 mm | - | - | - |
| 1777643509 | 23.33° C | 35% | 1022.7 hPa | 0 mm | - | - | - |
| 1777643211 | 22.78° C | 35% | 1022.8 hPa | 0 mm | - | - | - |
| 1777642911 | 22.78° C | 33% | 1022.9 hPa | 0 mm | - | - | - |
| 1777642610 | 23.33° C | 35% | 1023 hPa | 0 mm | - | - | - |
| 1777642309 | 23.33° C | 34% | 1023.1 hPa | 0 mm | - | - | - |
| 1777642011 | 23.33° C | 33% | 1023.1 hPa | 0 mm | - | - | - |
| 1777641711 | 23.33° C | 34% | 1023.2 hPa | 0 mm | - | - | - |
| 1777641415 | 22.78° C | 33% | 1023.3 hPa | 0 mm | - | - | - |
| 1777641110 | 22.78° C | 34% | 1023.2 hPa | 0 mm | - | - | - |
| 1777640810 | 22.78° C | 34% | 1023.3 hPa | 0 mm | - | - | - |
| 1777640511 | 22.78° C | 35% | 1023.4 hPa | 0 mm | - | - | - |
| 1777640210 | 22.78° C | 34% | 1023.4 hPa | 0 mm | - | - | - |
| 1777639911 | 22.78° C | 34% | 1023.5 hPa | 0 mm | - | - | - |
| 1777639609 | 22.78° C | 35% | 1023.5 hPa | 0 mm | - | - | - |
| 1777639310 | 22.78° C | 35% | 1023.6 hPa | 0 mm | - | - | - |
* Rain latest hour (hover to see other rain measurements)
** Current wind speed in m/s (hover to see current wind gust speed)